Regional Weather Roundup
Issued by NWS

Home | Current Version | Previous Version | Text Only | Print | Product List | Glossary Off
Versions: 1 2 3 4 5 6 7 8 9 10 11 12 13 14 15 16 17 18 19 20 21 22 23 24 25 26 27

000
ASUS43 KDMX 200107
RWRIA

WEATHER ROUNDUP FOR IOWA
NATIONAL WEATHER SERVICE DES MOINES IA
800 PM CDT SAT APR 19 2014

NOTE: "FAIR" INDICATES FEW OR NO CLOUDS BELOW 12,000 FEET WITH NO
SIGNIFICANT WEATHER AND/OR OBSTRUCTIONS TO VISIBILITY.

* - THESE STATIONS ARE NOT NWS STATIONS...THUS NOT UNDER NWS
QUALITY CONTROL.  THEY ALSO DO NOT REPORT WEATHER SUCH
AS PRECIPITATION OR FOG.

IAZ001>003-012>014-020>022-031>034-043>046-200200-
   NORTHWEST IOWA

CITY           SKY/WX    TMP DP  RH WIND       PRES   REMARKS
CARROLL *      CLOUDY    72  43  35 S13       30.00S
CHEROKEE *     CLOUDY    68  46  45 N5        29.98R
DENISON *      CLOUDY    72  43  35 S9        29.97F
LE MARS *      CLOUDY    68  50  52 CALM      29.97F
ORANGE CITY *  MOCLDY    70  46  43 N5        29.98S
SHELDON *      CLOUDY    64  43  45 N7        29.98R
SIOUX CITY     CLOUDY    69  49  48 N5        29.96F
SPENCER        CLOUDY    66  48  52 W3        29.98S
STORM LAKE *   CLOUDY    68  45  42 S10       29.99S
$$

IAZ055>058-069>071-079>083-090>094-200200-
   SOUTHWEST IOWA

CITY           SKY/WX    TMP DP  RH WIND       PRES   REMARKS
ATLANTIC *     CLOUDY    73  43  33 S14G20    30.00R
AUDUBON *      PTCLDY    72  36  26 S8        30.02S HAZE
CLARINDA *     CLEAR     70  45  40 S9        30.04R
COUNCIL BLFS * CLOUDY    73  46  38 S16       29.97R
CRESTON *      CLEAR     68  45  42 S12       30.05R
HARLAN  *      CLOUDY    73  45  35 S12       30.02S
LAMONI         CLEAR     70  43  37 S12       30.06S
RED OAK *      CLOUDY    73  45  35 S13       30.00S
SHENANDOAH *   PTCLDY    72  45  37 S15       30.01S
$$

IAZ047>049-059>061-072>074-084-200200-
   CENTRAL IOWA

CITY           SKY/WX    TMP DP  RH WIND       PRES   REMARKS
AMES           CLOUDY    70  43  37 S10       30.04R
ANKENY *       CLEAR     70  45  40 S10       30.04S
CHARITON *     CLEAR     66  45  45 S12       30.07S
DES MOINES     MOCLDY    71  43  36 S10       30.04F
GRINNELL*      PTCLDY    66  43  42 S10       30.07F
KNOXVILLE *    CLEAR     68  43  40 S9        30.07S
MARSHALLTOWN   MOCLDY    68  45  43 S10       30.05S
NEWTON *       MOCLDY    66  43  42 S12       30.07S
PELLA *        MOCLDY    70  43  37 S9        30.08S
PERRY *        CLOUDY    72  37  28 S10       30.03R
$$

IAZ004>006-015-016-023>025-035-036-200200-
   NORTH CENTRAL IOWA

CITY           SKY/WX    TMP DP  RH WIND       PRES   REMARKS
ALGONA *       CLOUDY    68  45  42 S12       30.00S
CLARION *      CLOUDY    68  43  40 S12       30.02S
ESTHERVILLE    CLOUDY    67  48  50 SW5       29.98R
FORT DODGE *   CLOUDY    72  43  35 S16       30.02S
MASON CITY     CLOUDY    66  46  48 S13       30.03R
FOREST CITY *  CLOUDY    68  45  42 S9        30.01R
IOWA FALLS *   CLOUDY    66  45  45 S9        30.05S
$$

IAZ007>011-017>019-026>030-037>042-050>054-066-200200-
   NORTHEAST IOWA

CITY           SKY/WX    TMP DP  RH WIND       PRES   REMARKS
CEDAR RAPIDS   MOCLDY    67  41  38 S8        30.09R
CHARLES CITY * CLOUDY    66  45  45 S13       30.05S
CLINTON *      MOCLDY    63  34  34 S8        30.17S
DECORAH *      CLOUDY    66  43  42 S10       30.06S
DUBUQUE        CLOUDY    59  39  47 S12       30.13R
MONTICELLO *   CLEAR     64  41  42 SE9       30.11S
OELWEIN *      PTCLDY   N/A N/A N/A S12       30.08S
WATERLOO       MOCLDY    67  44  43 S10       30.06R
$$

IAZ064-065-067-068-078-200200-
   EAST CENTRAL IOWA

CITY           SKY/WX    TMP DP  RH WIND       PRES   REMARKS
DAVENPORT      MOCLDY    65  33  30 S12       30.14S
IOWA CITY      MOCLDY    68  41  37 S10       30.12R
MT. PLEASANT * CLEAR     64  39  39 SE8       30.13R
MUSCATINE *    CLEAR     68  39  34 S8        30.12R
QUAD CITIES    PTCLDY    65  34  31 SE8       30.13S
$$

IAZ062-063-075>077-085>089-095>099-200200-
   SOUTHEAST IOWA

CITY           SKY/WX    TMP DP  RH WIND       PRES   REMARKS
BURLINGTON     CLEAR     63  38  39 S8        30.12S
FAIRFIELD *    CLEAR     66  41  39 S8        30.11R
FORT MADISON * CLEAR     68  37  32 S6        30.14R
KEOKUK *       CLEAR     70  37  30 S7        30.12R
OSKALOOSA *      N/A     66  43  42 S9        30.10R
CENTERVILLE *  CLEAR     66  45  45 S9        30.10S
OTTUMWA        MOCLDY    68  41  37 S9        30.09R
WASHINGTON *   CLEAR     64  41  42 S10       30.11S
$$

ABBREVIATIONS USED IN REMARKS
   TC - TEMPERATURES IN CELSIUS
  WCI - WIND CHILL INDEX
   HX - HEAT INDEX
  VSB - VISIBILITY
$$




USA.gov is the U.S. government's official web portal to all federal, state and local government web resources and services.